Year,Month,Day,Hour,Minute,Value (Times are PST for temperature in C)
2021,12,29,00,00,-4.30
2021,12,29,00,01,-4.30
2021,12,29,00,02,-4.30
2021,12,29,00,03,-4.30
2021,12,29,00,04,-4.30
2021,12,29,00,05,-4.30
2021,12,29,00,06,-4.30
2021,12,29,00,07,-4.30
2021,12,29,00,08,-4.30
2021,12,29,00,09,-4.30
2021,12,29,00,10,-4.40
2021,12,29,00,11,-4.40
2021,12,29,00,12,-4.30
2021,12,29,00,13,-4.30
2021,12,29,00,14,-4.30
2021,12,29,00,15,-4.30
2021,12,29,00,16,-4.30
2021,12,29,00,17,-4.30
2021,12,29,00,18,-4.30
2021,12,29,00,19,-4.30
2021,12,29,00,20,-4.20
2021,12,29,00,21,-4.10
2021,12,29,00,22,-4.10
2021,12,29,00,23,-4.10
2021,12,29,00,24,-4.10
2021,12,29,00,25,-4.10
2021,12,29,00,26,-4.10
2021,12,29,00,27,-4.20
2021,12,29,00,28,-4.20
2021,12,29,00,29,-4.20
2021,12,29,00,30,-4.30
2021,12,29,00,31,-4.30
2021,12,29,00,32,-4.30
2021,12,29,00,33,-4.30
2021,12,29,00,34,-4.30
2021,12,29,00,35,-4.30
2021,12,29,00,36,-4.30
2021,12,29,00,37,-4.40
2021,12,29,00,38,-4.50
2021,12,29,00,39,-4.50
2021,12,29,00,40,-4.50
2021,12,29,00,41,-4.50
2021,12,29,00,42,-4.60
2021,12,29,00,43,-4.60
2021,12,29,00,44,-4.60
2021,12,29,00,45,-4.70
2021,12,29,00,46,-4.60
2021,12,29,00,47,-4.70
2021,12,29,00,48,-4.70
2021,12,29,00,49,-4.70
2021,12,29,00,50,-4.80
2021,12,29,00,51,-4.80
2021,12,29,00,52,-4.80
2021,12,29,00,53,-4.80
2021,12,29,00,54,-4.80
2021,12,29,00,55,-4.80
2021,12,29,00,56,-4.80
2021,12,29,00,57,-4.70
2021,12,29,00,58,-4.80
2021,12,29,00,59,-4.80
2021,12,29,01,00,-4.80
2021,12,29,01,01,-4.90
2021,12,29,01,02,-4.90
2021,12,29,01,03,-4.80
2021,12,29,01,04,-4.80
2021,12,29,01,05,-4.70
2021,12,29,01,06,-4.70
2021,12,29,01,07,-4.70
2021,12,29,01,08,-4.70
2021,12,29,01,09,-4.70
2021,12,29,01,10,-4.70
2021,12,29,01,11,-4.70
2021,12,29,01,12,-4.70
2021,12,29,01,13,-4.70
2021,12,29,01,14,-4.70
2021,12,29,01,15,-4.70
2021,12,29,01,16,-4.70
2021,12,29,01,17,-4.70
2021,12,29,01,18,-4.70
2021,12,29,01,19,-4.70
2021,12,29,01,20,-4.60
2021,12,29,01,21,-4.60
2021,12,29,01,22,-4.60
2021,12,29,01,23,-4.60
2021,12,29,01,24,-4.60
2021,12,29,01,25,-4.60
2021,12,29,01,26,-4.50
2021,12,29,01,27,-4.50
2021,12,29,01,28,-4.40
2021,12,29,01,29,-4.40
2021,12,29,01,30,-4.40
2021,12,29,01,31,-4.40
2021,12,29,01,32,-4.40
2021,12,29,01,33,-4.40
2021,12,29,01,34,-4.30
2021,12,29,01,35,-4.30
2021,12,29,01,36,-4.30
2021,12,29,01,37,-4.30
2021,12,29,01,38,-4.30
2021,12,29,01,39,-4.30
2021,12,29,01,40,-4.30
2021,12,29,01,41,-4.30
2021,12,29,01,42,-4.20
2021,12,29,01,43,-4.20
2021,12,29,01,44,-4.20
2021,12,29,01,45,-4.20
2021,12,29,01,46,-4.10
2021,12,29,01,47,-4.10
2021,12,29,01,48,-4.10
2021,12,29,01,49,-4.10
2021,12,29,01,50,-4.10
2021,12,29,01,51,-4.10
2021,12,29,01,52,-4.10
2021,12,29,01,53,-4.10
2021,12,29,01,54,-4.20
2021,12,29,01,55,-4.20
2021,12,29,01,56,-4.30
2021,12,29,01,57,-4.30
2021,12,29,01,58,-4.30
2021,12,29,01,59,-4.40
2021,12,29,02,00,-4.40
2021,12,29,02,01,-4.40
2021,12,29,02,02,-4.40
2021,12,29,02,03,-4.50
2021,12,29,02,04,-4.50
2021,12,29,02,05,-4.50
2021,12,29,02,06,-4.60
2021,12,29,02,07,-4.60
2021,12,29,02,08,-4.70
2021,12,29,02,09,-4.70
2021,12,29,02,10,-4.70
2021,12,29,02,11,-4.70
2021,12,29,02,12,-4.70
2021,12,29,02,13,-4.60
2021,12,29,02,14,-4.60
2021,12,29,02,15,-4.60
2021,12,29,02,16,-4.50
2021,12,29,02,17,-4.50
2021,12,29,02,18,-4.40
2021,12,29,02,19,-4.40
2021,12,29,02,20,-4.40
2021,12,29,02,21,-4.40
2021,12,29,02,22,-4.40
2021,12,29,02,23,-4.40
2021,12,29,02,24,-4.40
2021,12,29,02,25,-4.30
2021,12,29,02,26,-4.30
2021,12,29,02,27,-4.30
2021,12,29,02,28,-4.30
2021,12,29,02,29,-4.30
2021,12,29,02,30,-4.20
2021,12,29,02,31,-4.20
2021,12,29,02,32,-4.10
2021,12,29,02,33,-4.10
2021,12,29,02,34,-4.00
2021,12,29,02,35,-4.00
2021,12,29,02,36,-3.90
2021,12,29,02,37,-3.80
2021,12,29,02,38,-3.70
2021,12,29,02,39,-3.50
2021,12,29,02,40,-3.40
2021,12,29,02,41,-3.40
2021,12,29,02,42,-3.40
2021,12,29,02,43,-3.30
2021,12,29,02,44,-3.20
2021,12,29,02,45,-3.10
2021,12,29,02,46,-3.10
2021,12,29,02,47,-3.20
2021,12,29,02,48,-3.20
2021,12,29,02,49,-3.30
2021,12,29,02,50,-3.30
2021,12,29,02,51,-3.30
2021,12,29,02,52,-3.40
2021,12,29,02,53,-3.40
2021,12,29,02,54,-3.40
2021,12,29,02,55,-3.40
2021,12,29,02,56,-3.40
2021,12,29,02,57,-3.40
2021,12,29,02,58,-3.40
2021,12,29,02,59,-3.30
2021,12,29,03,00,-3.40
2021,12,29,03,01,-3.40
2021,12,29,03,02,-3.40
2021,12,29,03,03,-3.40
2021,12,29,03,04,-3.40
2021,12,29,03,05,-3.40
2021,12,29,03,06,-3.40
2021,12,29,03,07,-3.40
2021,12,29,03,08,-3.40
2021,12,29,03,09,-3.40
2021,12,29,03,10,-3.50
2021,12,29,03,11,-3.50
2021,12,29,03,12,-3.60
2021,12,29,03,13,-3.60
2021,12,29,03,14,-3.60
2021,12,29,03,15,-3.60
2021,12,29,03,16,-3.60
2021,12,29,03,17,-3.70
2021,12,29,03,18,-3.70
2021,12,29,03,19,-3.70
2021,12,29,03,20,-3.70
2021,12,29,03,21,-3.70
2021,12,29,03,22,-3.70
2021,12,29,03,23,-3.70
2021,12,29,03,24,-3.70
2021,12,29,03,25,-3.70
2021,12,29,03,26,-3.80
2021,12,29,03,27,-3.80
2021,12,29,03,28,-3.80
2021,12,29,03,29,-3.80
2021,12,29,03,30,-3.80
2021,12,29,03,31,-3.80
2021,12,29,03,32,-3.80
2021,12,29,03,33,-3.80
2021,12,29,03,34,-3.80
2021,12,29,03,35,-3.80
2021,12,29,03,36,-3.80
2021,12,29,03,37,-3.80
2021,12,29,03,38,-3.80
2021,12,29,03,39,-3.70
2021,12,29,03,40,-3.70
2021,12,29,03,41,-3.60
2021,12,29,03,42,-3.60
2021,12,29,03,43,-3.60
2021,12,29,03,44,-3.50
2021,12,29,03,45,-3.50
2021,12,29,03,46,-3.50
2021,12,29,03,47,-3.30
2021,12,29,03,48,-3.20
2021,12,29,03,49,-3.20
2021,12,29,03,50,-3.10
2021,12,29,03,51,-3.00
2021,12,29,03,52,-3.00
2021,12,29,03,53,-2.90
2021,12,29,03,54,-2.90
2021,12,29,03,55,-2.80
2021,12,29,03,56,-2.80
2021,12,29,03,57,-3.00
2021,12,29,03,58,-3.10
2021,12,29,03,59,-3.20
2021,12,29,04,00,-3.20
2021,12,29,04,01,-3.30
2021,12,29,04,02,-3.30
2021,12,29,04,03,-3.40
2021,12,29,04,04,-3.40
2021,12,29,04,05,-3.40
2021,12,29,04,06,-3.40
2021,12,29,04,07,-3.30
2021,12,29,04,08,-3.30
2021,12,29,04,09,-3.30
2021,12,29,04,10,-3.20
2021,12,29,04,11,-3.20
2021,12,29,04,12,-3.20
2021,12,29,04,13,-3.20
2021,12,29,04,14,-3.20
2021,12,29,04,15,-3.30
2021,12,29,04,16,-3.40
2021,12,29,04,17,-3.60
2021,12,29,04,18,-3.70
2021,12,29,04,19,-3.70
2021,12,29,04,20,-3.70
2021,12,29,04,21,-3.70
2021,12,29,04,22,-3.70
2021,12,29,04,23,-3.80
2021,12,29,04,24,-3.80
2021,12,29,04,25,-3.90
2021,12,29,04,26,-4.00
2021,12,29,04,27,-4.10
2021,12,29,04,28,-4.10
2021,12,29,04,29,-4.10
2021,12,29,04,30,-4.20
2021,12,29,04,31,-4.30
2021,12,29,04,32,-4.40
2021,12,29,04,33,-4.50
2021,12,29,04,34,-4.50
2021,12,29,04,35,-4.50
2021,12,29,04,36,-4.60
2021,12,29,04,37,-4.60
2021,12,29,04,38,-4.60
2021,12,29,04,39,-4.60
2021,12,29,04,40,-4.70
2021,12,29,04,41,-4.70
2021,12,29,04,42,-4.80
2021,12,29,04,43,-4.90
2021,12,29,04,44,-4.90
2021,12,29,04,45,-4.90
2021,12,29,04,46,-4.80
2021,12,29,04,47,-4.80
2021,12,29,04,48,-4.70
2021,12,29,04,49,-4.50
2021,12,29,04,50,-4.50
2021,12,29,04,51,-4.50
2021,12,29,04,52,-4.50
2021,12,29,04,53,-4.50
2021,12,29,04,54,-4.50
2021,12,29,04,55,-4.50
2021,12,29,04,56,-4.50
2021,12,29,04,57,-4.50
2021,12,29,04,58,-4.50
2021,12,29,04,59,-4.50
2021,12,29,05,00,-4.50
2021,12,29,08,57,-5.30
2021,12,29,08,58,-5.30
2021,12,29,08,59,-5.20
2021,12,29,09,00,-5.20
2021,12,29,09,01,-5.20
2021,12,29,09,02,-5.20
2021,12,29,09,03,-5.20
2021,12,29,09,04,-5.20
2021,12,29,09,05,-5.20
2021,12,29,09,06,-5.20
2021,12,29,09,07,-5.30
2021,12,29,09,08,-5.20
2021,12,29,09,09,-5.10
2021,12,29,09,10,-4.90
2021,12,29,09,11,-4.80
2021,12,29,09,12,-4.70
2021,12,29,09,13,-4.70
2021,12,29,09,14,-4.60
2021,12,29,09,15,-4.50
2021,12,29,09,16,-4.50
2021,12,29,09,17,-4.40
2021,12,29,09,18,-4.30
2021,12,29,09,19,-4.30
2021,12,29,09,20,-4.30
2021,12,29,09,21,-4.30
2021,12,29,09,22,-4.40
2021,12,29,09,23,-4.50
2021,12,29,09,24,-4.60
2021,12,29,09,25,-4.60
2021,12,29,09,26,-4.60
2021,12,29,09,27,-4.60
2021,12,29,09,28,-4.50
2021,12,29,09,29,-4.50
2021,12,29,09,30,-4.60
2021,12,29,09,31,-4.60
2021,12,29,09,32,-4.50
2021,12,29,09,33,-4.50
2021,12,29,09,34,-4.30
2021,12,29,09,35,-4.20
2021,12,29,09,36,-4.20
2021,12,29,09,37,-4.20
2021,12,29,09,38,-4.20
2021,12,29,09,39,-4.10
2021,12,29,09,40,-4.10
2021,12,29,09,41,-4.10
2021,12,29,09,42,-4.10
2021,12,29,09,43,-4.00
2021,12,29,09,44,-4.00
2021,12,29,09,45,-4.00
2021,12,29,09,46,-4.10
2021,12,29,09,47,-4.10
2021,12,29,09,48,-4.00
2021,12,29,09,49,-4.00
2021,12,29,09,50,-4.10
2021,12,29,09,51,-4.10
2021,12,29,09,52,-4.10
2021,12,29,09,53,-4.10
2021,12,29,09,54,-4.10
2021,12,29,09,55,-4.10
2021,12,29,09,56,-4.10
2021,12,29,09,57,-4.10
2021,12,29,09,58,-4.10
2021,12,29,09,59,-4.20
2021,12,29,10,00,-4.20
2021,12,29,10,01,-4.20
2021,12,29,10,02,-4.10
2021,12,29,10,03,-4.10
2021,12,29,10,04,-4.10
2021,12,29,10,05,-4.10
2021,12,29,10,06,-4.10
2021,12,29,10,07,-4.00
2021,12,29,10,08,-4.00
2021,12,29,10,09,-3.90
2021,12,29,10,10,-3.90
2021,12,29,10,11,-3.90
2021,12,29,10,12,-3.80
2021,12,29,10,13,-3.90
2021,12,29,10,14,-3.80
2021,12,29,10,15,-3.80
2021,12,29,10,16,-3.80
2021,12,29,10,17,-3.80
2021,12,29,10,18,-3.80
2021,12,29,10,19,-3.80
2021,12,29,10,20,-3.80
2021,12,29,10,21,-3.80
2021,12,29,10,22,-3.90
2021,12,29,10,23,-3.90
2021,12,29,10,24,-3.90
2021,12,29,10,25,-3.90
2021,12,29,10,26,-3.90
2021,12,29,10,27,-3.90
2021,12,29,10,28,-3.90
2021,12,29,10,29,-3.90
2021,12,29,10,30,-3.80
2021,12,29,10,31,-3.90
2021,12,29,10,32,-3.80
2021,12,29,10,33,-3.80
2021,12,29,10,34,-3.80
2021,12,29,10,35,-3.80
2021,12,29,10,36,-3.80
2021,12,29,10,37,-3.80
2021,12,29,10,38,-3.90
2021,12,29,10,39,-3.90
2021,12,29,10,40,-3.90
2021,12,29,10,41,-3.90
2021,12,29,10,42,-3.90
2021,12,29,10,43,-3.90
2021,12,29,10,44,-3.90
2021,12,29,10,45,-3.90
2021,12,29,10,46,-3.90
2021,12,29,10,47,-3.90
2021,12,29,10,48,-3.90
2021,12,29,10,49,-3.90
2021,12,29,10,50,-3.90
2021,12,29,10,51,-3.80
2021,12,29,10,52,-3.80
2021,12,29,10,53,-3.80
2021,12,29,10,54,-3.80
2021,12,29,10,55,-3.80
2021,12,29,10,56,-3.80
2021,12,29,10,57,-3.80
2021,12,29,10,58,-3.80
2021,12,29,10,59,-3.80
2021,12,29,11,00,-3.80
2021,12,29,11,01,-3.80
2021,12,29,11,02,-3.80
2021,12,29,11,03,-3.70
2021,12,29,11,04,-3.70
2021,12,29,11,05,-3.70
2021,12,29,11,06,-3.70
2021,12,29,11,07,-3.70
2021,12,29,11,08,-3.70
2021,12,29,11,09,-3.60
2021,12,29,11,10,-3.60
2021,12,29,11,11,-3.60
2021,12,29,11,12,-3.60
2021,12,29,11,13,-3.50
2021,12,29,11,14,-3.50
2021,12,29,11,15,-3.50
2021,12,29,11,16,-3.50
2021,12,29,11,17,-3.50
2021,12,29,11,18,-3.50
2021,12,29,11,19,-3.50
2021,12,29,11,20,-3.50
2021,12,29,11,21,-3.60
2021,12,29,11,22,-3.60
2021,12,29,11,23,-3.60
2021,12,29,11,24,-3.60
2021,12,29,11,25,-3.60
2021,12,29,11,26,-3.60
2021,12,29,11,27,-3.60
2021,12,29,11,28,-3.60
2021,12,29,11,29,-3.60
2021,12,29,11,30,-3.60
2021,12,29,11,31,-3.60
2021,12,29,11,32,-3.60
2021,12,29,11,33,-3.60
2021,12,29,11,34,-3.60
2021,12,29,11,35,-3.60
2021,12,29,11,36,-3.60
2021,12,29,11,37,-3.60
2021,12,29,11,38,-3.60
2021,12,29,11,39,-3.60
2021,12,29,11,40,-3.60
2021,12,29,11,41,-3.60
2021,12,29,11,42,-3.60
2021,12,29,11,43,-3.60
2021,12,29,11,44,-3.60
2021,12,29,11,45,-3.60
2021,12,29,11,46,-3.60
2021,12,29,11,47,-3.60
2021,12,29,11,48,-3.50
2021,12,29,11,49,-3.60
2021,12,29,11,50,-3.50
2021,12,29,11,51,-3.50
2021,12,29,11,52,-3.50
2021,12,29,11,53,-3.50
2021,12,29,11,54,-3.50
2021,12,29,11,55,-3.50
2021,12,29,11,56,-3.50
2021,12,29,11,57,-3.50
2021,12,29,11,58,-3.40
2021,12,29,11,59,-3.40
2021,12,29,12,00,-3.40
2021,12,29,12,01,-3.40
2021,12,29,12,02,-3.30
2021,12,29,12,03,-3.30
2021,12,29,12,04,-3.30
2021,12,29,12,05,-3.30
2021,12,29,12,06,-3.30
2021,12,29,12,07,-3.30
2021,12,29,12,08,-3.30
2021,12,29,12,09,-3.30
2021,12,29,12,10,-3.30
2021,12,29,12,11,-3.30
2021,12,29,12,12,-3.30
2021,12,29,12,13,-3.30
2021,12,29,12,14,-3.20
2021,12,29,12,15,-3.20
2021,12,29,12,16,-3.20
2021,12,29,12,17,-3.20
2021,12,29,12,18,-3.20
2021,12,29,12,19,-3.20
2021,12,29,12,20,-3.10
2021,12,29,12,21,-3.10
2021,12,29,12,22,-3.10
2021,12,29,12,23,-3.10
2021,12,29,12,24,-3.10
2021,12,29,12,25,-3.10
2021,12,29,12,26,-3.10
2021,12,29,12,27,-3.10
2021,12,29,12,28,-3.10
2021,12,29,12,29,-3.10
2021,12,29,12,30,-3.00
2021,12,29,12,31,-3.00
2021,12,29,12,32,-3.00
2021,12,29,12,33,-3.00
2021,12,29,12,34,-2.90
2021,12,29,12,35,-2.90
2021,12,29,12,36,-2.90
2021,12,29,12,37,-2.90
2021,12,29,12,38,-2.90
2021,12,29,12,39,-2.90
2021,12,29,12,40,-2.90
2021,12,29,12,41,-2.90
2021,12,29,12,42,-2.80
2021,12,29,12,43,-2.80
2021,12,29,12,44,-2.80
2021,12,29,12,45,-2.80
2021,12,29,12,46,-2.80
2021,12,29,12,47,-2.80
2021,12,29,12,48,-2.80
2021,12,29,12,49,-2.80
2021,12,29,12,50,-2.80
2021,12,29,12,51,-2.80
2021,12,29,12,52,-2.70
2021,12,29,12,53,-2.70
2021,12,29,12,54,-2.70
2021,12,29,12,55,-2.70
2021,12,29,12,56,-2.70
2021,12,29,12,57,-2.70
2021,12,29,12,58,-2.70
2021,12,29,12,59,-2.70
2021,12,29,13,00,-2.70
2021,12,29,13,01,-2.70
2021,12,29,13,02,-2.70
2021,12,29,13,03,-2.70
2021,12,29,13,04,-2.70
2021,12,29,13,05,-2.80
2021,12,29,13,06,-2.80
2021,12,29,13,07,-2.80
2021,12,29,13,08,-2.80
2021,12,29,13,09,-2.80
2021,12,29,13,10,-2.80
2021,12,29,13,11,-2.80
2021,12,29,13,12,-2.80
2021,12,29,13,13,-2.80
2021,12,29,13,14,-2.90
2021,12,29,13,15,-2.90
2021,12,29,13,16,-2.90
2021,12,29,13,17,-2.90
2021,12,29,13,18,-2.90
2021,12,29,13,19,-2.90
2021,12,29,13,20,-2.90
2021,12,29,13,21,-2.90
2021,12,29,13,22,-2.90
2021,12,29,13,23,-2.90
2021,12,29,13,24,-2.90
2021,12,29,13,25,-2.90
2021,12,29,13,26,-3.00
2021,12,29,13,27,-3.00
2021,12,29,13,28,-3.00
2021,12,29,13,29,-3.00
2021,12,29,13,30,-3.00
2021,12,29,13,31,-3.00
2021,12,29,13,32,-3.00
2021,12,29,13,33,-3.00
2021,12,29,13,34,-3.00
2021,12,29,13,35,-3.00
2021,12,29,13,36,-2.90
2021,12,29,13,37,-2.90
2021,12,29,13,38,-2.90
2021,12,29,13,39,-3.00
2021,12,29,13,40,-3.00
2021,12,29,13,41,-3.00
2021,12,29,13,42,-3.10
2021,12,29,13,43,-3.00
2021,12,29,13,44,-3.10
2021,12,29,13,45,-3.10
2021,12,29,13,46,-3.00
2021,12,29,13,47,-3.00
2021,12,29,13,48,-3.00
2021,12,29,13,49,-3.00
2021,12,29,13,50,-3.00
2021,12,29,13,51,-3.00
2021,12,29,13,52,-3.00
2021,12,29,13,53,-3.00
2021,12,29,13,54,-3.00
2021,12,29,13,55,-3.10
2021,12,29,13,56,-3.10
2021,12,29,13,57,-3.10
2021,12,29,13,58,-3.10
2021,12,29,13,59,-3.10
2021,12,29,14,00,-3.20
2021,12,29,14,01,-3.20
2021,12,29,14,02,-3.20
2021,12,29,14,03,-3.20
2021,12,29,14,04,-3.20
2021,12,29,14,05,-3.20
2021,12,29,14,06,-3.20
2021,12,29,14,07,-3.20
2021,12,29,14,08,-3.20
2021,12,29,14,09,-3.20
2021,12,29,14,10,-3.20
2021,12,29,14,11,-3.20
2021,12,29,14,12,-3.20
2021,12,29,14,13,-3.20
2021,12,29,14,14,-3.20
2021,12,29,14,15,-3.20
2021,12,29,14,16,-3.20
2021,12,29,14,17,-3.20
2021,12,29,14,18,-3.20
2021,12,29,14,19,-3.20
2021,12,29,14,20,-3.20
2021,12,29,14,21,-3.10
2021,12,29,14,22,-3.10
2021,12,29,14,23,-3.20
2021,12,29,14,24,-3.10
2021,12,29,14,25,-3.10
2021,12,29,14,26,-3.10
2021,12,29,14,27,-3.20
2021,12,29,14,28,-3.10
2021,12,29,14,29,-3.10
2021,12,29,14,30,-3.10
2021,12,29,14,31,-3.10
2021,12,29,14,32,-3.10
2021,12,29,14,33,-3.10
2021,12,29,14,34,-3.00
2021,12,29,14,35,-3.00
2021,12,29,14,36,-3.00
2021,12,29,14,37,-3.00
2021,12,29,14,38,-2.90
2021,12,29,14,39,-2.90
2021,12,29,14,40,-2.90
2021,12,29,14,41,-2.90
2021,12,29,14,42,-2.90
2021,12,29,14,43,-2.90
2021,12,29,14,44,-2.80
2021,12,29,14,45,-2.80
2021,12,29,14,46,-2.80
2021,12,29,14,47,-2.80
2021,12,29,14,48,-2.80
2021,12,29,14,49,-2.80
2021,12,29,14,50,-2.80
2021,12,29,14,51,-2.70
2021,12,29,14,52,-2.70
2021,12,29,14,53,-2.70
2021,12,29,14,54,-2.70
2021,12,29,14,55,-2.70
2021,12,29,14,56,-2.70
2021,12,29,14,57,-2.70
2021,12,29,14,58,-2.70
2021,12,29,14,59,-2.70
2021,12,29,15,00,-2.70
2021,12,29,15,01,-2.70
2021,12,29,15,02,-2.70
2021,12,29,15,03,-2.70
2021,12,29,15,04,-2.70
2021,12,29,15,05,-2.70
2021,12,29,15,06,-2.70
2021,12,29,15,07,-2.70
2021,12,29,15,08,-2.70
2021,12,29,15,09,-2.70
2021,12,29,15,10,-2.70
2021,12,29,15,11,-2.60
2021,12,29,15,12,-2.60
2021,12,29,15,13,-2.70
2021,12,29,15,14,-2.70
2021,12,29,15,15,-2.70
2021,12,29,15,16,-2.70
2021,12,29,15,17,-2.70
2021,12,29,15,18,-2.70
2021,12,29,15,19,-2.70
2021,12,29,15,20,-2.70
2021,12,29,15,21,-2.70
2021,12,29,15,22,-2.70
2021,12,29,15,23,-2.70
2021,12,29,15,24,-2.70
2021,12,29,15,25,-2.70
2021,12,29,15,26,-2.70
2021,12,29,15,27,-2.70
2021,12,29,15,28,-2.70
2021,12,29,15,29,-2.70
2021,12,29,15,30,-2.70
2021,12,29,15,31,-2.70
2021,12,29,15,32,-2.70
2021,12,29,15,33,-2.70
2021,12,29,15,34,-2.70
2021,12,29,15,35,-2.70
2021,12,29,15,36,-2.70
2021,12,29,15,37,-2.80
2021,12,29,15,38,-2.80
2021,12,29,15,39,-2.80
2021,12,29,15,40,-2.80
2021,12,29,15,41,-2.80
2021,12,29,15,42,-2.80
2021,12,29,15,43,-2.80
2021,12,29,15,44,-2.80
2021,12,29,15,45,-2.80
2021,12,29,15,46,-2.80
2021,12,29,15,47,-2.80
2021,12,29,15,48,-2.80
2021,12,29,15,49,-2.80
2021,12,29,15,50,-2.80
2021,12,29,15,51,-2.80
2021,12,29,15,52,-2.80
2021,12,29,15,53,-2.80
2021,12,29,15,54,-2.80
2021,12,29,15,55,-2.80
2021,12,29,15,56,-2.80
2021,12,29,15,57,-2.80
2021,12,29,15,58,-2.80
2021,12,29,15,59,-2.80
2021,12,29,16,00,-2.80
2021,12,29,16,01,-2.80
2021,12,29,16,02,-2.80
2021,12,29,16,03,-2.80
2021,12,29,16,04,-2.90
2021,12,29,16,05,-2.90
2021,12,29,16,06,-2.90
2021,12,29,16,07,-2.90
2021,12,29,16,08,-2.90
2021,12,29,16,09,-2.90
2021,12,29,16,10,-2.90
2021,12,29,16,11,-2.90
2021,12,29,16,12,-2.90
2021,12,29,16,13,-3.00
2021,12,29,16,14,-3.00
2021,12,29,16,15,-3.00
2021,12,29,16,16,-3.10
2021,12,29,16,17,-3.10
2021,12,29,16,18,-3.10
2021,12,29,16,19,-3.10
2021,12,29,16,20,-3.10
2021,12,29,16,21,-3.10
2021,12,29,16,22,-3.10
2021,12,29,16,23,-3.10
2021,12,29,16,24,-3.10
2021,12,29,16,25,-3.10
2021,12,29,16,26,-3.20
2021,12,29,16,27,-3.20
2021,12,29,16,28,-3.20
2021,12,29,16,29,-3.20
2021,12,29,16,30,-3.20
2021,12,29,16,31,-3.20
2021,12,29,16,32,-3.20
2021,12,29,16,33,-3.20
2021,12,29,16,34,-3.30
2021,12,29,16,35,-3.30
2021,12,29,16,36,-3.30
2021,12,29,16,37,-3.30
2021,12,29,16,38,-3.30
2021,12,29,16,39,-3.30
2021,12,29,16,40,-3.30
2021,12,29,16,41,-3.30
2021,12,29,16,42,-3.30
2021,12,29,16,43,-3.30
2021,12,29,16,44,-3.30
2021,12,29,16,45,-3.30
2021,12,29,16,46,-3.30
2021,12,29,16,47,-3.30
2021,12,29,16,48,-3.30
2021,12,29,16,49,-3.30
2021,12,29,16,50,-3.30
2021,12,29,16,51,-3.30
2021,12,29,16,52,-3.30
2021,12,29,16,53,-3.30
2021,12,29,16,54,-3.30
2021,12,29,16,55,-3.30
2021,12,29,16,56,-3.30
2021,12,29,16,57,-3.30
2021,12,29,16,58,-3.30
2021,12,29,16,59,-3.30
2021,12,29,17,00,-3.30
2021,12,29,17,01,-3.30
2021,12,29,17,02,-3.30
2021,12,29,17,03,-3.30
2021,12,29,17,04,-3.40
2021,12,29,17,05,-3.40
2021,12,29,17,06,-3.40
2021,12,29,17,07,-3.40
2021,12,29,17,08,-3.50
2021,12,29,17,09,-3.50
2021,12,29,17,10,-3.50
2021,12,29,17,11,-3.50
2021,12,29,17,12,-3.50
2021,12,29,17,13,-3.60
2021,12,29,17,14,-3.60
2021,12,29,17,15,-3.60
2021,12,29,17,16,-3.60
2021,12,29,17,17,-3.60
2021,12,29,17,18,-3.60
2021,12,29,17,19,-3.60
2021,12,29,17,20,-3.60
2021,12,29,17,21,-3.60
2021,12,29,17,22,-3.60
2021,12,29,17,23,-3.70
2021,12,29,17,24,-3.70
2021,12,29,17,25,-3.70
2021,12,29,17,26,-3.70
2021,12,29,17,27,-3.70
2021,12,29,17,28,-3.70
2021,12,29,17,29,-3.70
2021,12,29,17,30,-3.70
2021,12,29,17,31,-3.70
2021,12,29,17,32,-3.70
2021,12,29,17,33,-3.70
2021,12,29,17,34,-3.70
2021,12,29,17,35,-3.70
2021,12,29,17,36,-3.70
2021,12,29,17,37,-3.70
2021,12,29,17,38,-3.70
2021,12,29,17,39,-3.70
2021,12,29,17,40,-3.70
2021,12,29,17,41,-3.70
2021,12,29,17,42,-3.70
2021,12,29,17,43,-3.70
2021,12,29,17,44,-3.70
2021,12,29,17,45,-3.80
2021,12,29,17,46,-3.80
2021,12,29,17,47,-3.80
2021,12,29,17,48,-3.80
2021,12,29,17,49,-3.80
2021,12,29,17,50,-3.80
2021,12,29,17,51,-3.80
2021,12,29,17,52,-3.80
2021,12,29,17,53,-3.80
2021,12,29,17,54,-3.80
2021,12,29,17,55,-3.80
2021,12,29,17,56,-3.80
2021,12,29,17,57,-3.80
2021,12,29,17,58,-3.90
2021,12,29,17,59,-3.90
2021,12,29,18,00,-3.90
2021,12,29,18,01,-3.90
2021,12,29,18,02,-3.90
2021,12,29,18,03,-3.90
2021,12,29,18,04,-3.90
2021,12,29,18,05,-3.90
2021,12,29,18,06,-3.90
2021,12,29,18,07,-3.90
2021,12,29,18,08,-3.90
2021,12,29,18,09,-3.90
2021,12,29,18,10,-3.80
2021,12,29,18,11,-3.80
2021,12,29,18,12,-3.80
2021,12,29,18,13,-3.80
2021,12,29,18,14,-3.80
2021,12,29,18,15,-3.80
2021,12,29,18,16,-3.80
2021,12,29,18,17,-3.80
2021,12,29,18,18,-3.80
2021,12,29,18,19,-3.80
2021,12,29,18,20,-3.80
2021,12,29,18,21,-3.80
2021,12,29,18,22,-3.80
2021,12,29,18,23,-3.80
2021,12,29,18,24,-3.80
2021,12,29,18,25,-3.90
2021,12,29,18,26,-3.80
2021,12,29,18,27,-3.80
2021,12,29,18,28,-3.80
2021,12,29,18,29,-3.80
2021,12,29,18,30,-3.80
2021,12,29,18,31,-3.80
2021,12,29,18,32,-3.80
2021,12,29,18,33,-3.90
2021,12,29,18,34,-3.90
2021,12,29,18,35,-3.90
2021,12,29,18,36,-3.90
2021,12,29,18,37,-3.90
2021,12,29,18,38,-3.90
2021,12,29,18,39,-3.90
2021,12,29,18,40,-3.90
2021,12,29,18,41,-3.90
2021,12,29,18,42,-3.90
2021,12,29,18,43,-3.90
2021,12,29,18,44,-3.80
2021,12,29,18,45,-3.90
2021,12,29,18,46,-3.80
2021,12,29,18,47,-3.80
2021,12,29,18,48,-3.80
2021,12,29,18,49,-3.80
2021,12,29,18,50,-3.90
2021,12,29,18,51,-3.90
2021,12,29,18,52,-3.90
2021,12,29,18,53,-3.90
2021,12,29,18,54,-3.90
2021,12,29,18,55,-3.90
2021,12,29,18,56,-3.90
2021,12,29,18,57,-3.90
2021,12,29,18,58,-3.90
2021,12,29,18,59,-3.90
2021,12,29,19,00,-4.00
2021,12,29,19,01,-4.00
2021,12,29,19,02,-3.90
2021,12,29,19,03,-3.90
2021,12,29,19,04,-3.90
2021,12,29,19,05,-3.90
2021,12,29,19,06,-3.90
2021,12,29,19,07,-3.90
2021,12,29,19,08,-3.90
2021,12,29,19,09,-3.90
2021,12,29,19,10,-3.90
2021,12,29,19,11,-3.90
2021,12,29,19,12,-3.90
2021,12,29,19,13,-3.90
2021,12,29,19,14,-3.90
2021,12,29,19,15,-4.00
2021,12,29,19,16,-4.00
2021,12,29,19,17,-4.00
2021,12,29,19,18,-4.00
2021,12,29,19,19,-4.00
2021,12,29,19,20,-4.00
2021,12,29,19,21,-4.00
2021,12,29,19,22,-4.00
2021,12,29,19,23,-4.00
2021,12,29,19,24,-3.90
2021,12,29,19,25,-3.90
2021,12,29,19,26,-4.00
2021,12,29,19,27,-4.00
2021,12,29,19,28,-4.00
2021,12,29,19,29,-4.00
2021,12,29,19,30,-4.00
2021,12,29,19,31,-4.00
2021,12,29,19,32,-3.90
2021,12,29,19,33,-3.90
2021,12,29,19,34,-3.90
2021,12,29,19,35,-3.90
2021,12,29,19,36,-3.90
2021,12,29,19,37,-3.90
2021,12,29,19,38,-3.90
2021,12,29,19,39,-3.90
2021,12,29,19,40,-3.90
2021,12,29,19,41,-3.90
2021,12,29,19,42,-3.90
2021,12,29,19,43,-3.90
2021,12,29,19,44,-3.90
2021,12,29,19,45,-4.00
2021,12,29,19,46,-3.90
2021,12,29,19,47,-4.00
2021,12,29,19,48,-3.90
2021,12,29,19,49,-3.90
2021,12,29,19,50,-3.90
2021,12,29,19,51,-3.90
2021,12,29,19,52,-3.90
2021,12,29,19,53,-3.90
2021,12,29,19,54,-3.90
2021,12,29,19,55,-3.90
2021,12,29,19,56,-3.90
2021,12,29,19,57,-3.90
2021,12,29,19,58,-3.90
2021,12,29,19,59,-3.90
2021,12,29,20,00,-3.90
2021,12,29,20,01,-3.80
2021,12,29,20,02,-3.80
2021,12,29,20,03,-3.80
2021,12,29,20,04,-3.80
2021,12,29,20,05,-3.80
2021,12,29,20,06,-3.80
2021,12,29,20,07,-3.80
2021,12,29,20,08,-3.80
2021,12,29,20,09,-3.80
2021,12,29,20,10,-3.80
2021,12,29,20,11,-3.80
2021,12,29,20,12,-3.80
2021,12,29,20,13,-3.80
2021,12,29,20,14,-3.80
2021,12,29,20,15,-3.80
2021,12,29,20,16,-3.80
2021,12,29,20,17,-3.70
2021,12,29,20,18,-3.70
2021,12,29,20,19,-3.70
2021,12,29,20,20,-3.70
2021,12,29,20,21,-3.70
2021,12,29,20,22,-3.70
2021,12,29,20,23,-3.70
2021,12,29,20,24,-3.70
2021,12,29,20,25,-3.70
2021,12,29,20,26,-3.70
2021,12,29,20,27,-3.70
2021,12,29,20,28,-3.70
2021,12,29,20,29,-3.70
2021,12,29,20,30,-3.70
2021,12,29,20,31,-3.70
2021,12,29,20,32,-3.70
2021,12,29,20,33,-3.70
2021,12,29,20,34,-3.70
2021,12,29,20,35,-3.70
2021,12,29,20,36,-3.70
2021,12,29,20,37,-3.60
2021,12,29,20,38,-3.60
2021,12,29,20,39,-3.60
2021,12,29,20,40,-3.60
2021,12,29,20,41,-3.60
2021,12,29,20,42,-3.60
2021,12,29,20,43,-3.60
2021,12,29,20,44,-3.60
2021,12,29,20,45,-3.60
2021,12,29,20,46,-3.60
2021,12,29,20,47,-3.60
2021,12,29,20,48,-3.60
2021,12,29,20,49,-3.60
2021,12,29,20,50,-3.60
2021,12,29,20,51,-3.60
2021,12,29,20,52,-3.60
2021,12,29,20,53,-3.60
2021,12,29,20,54,-3.60
2021,12,29,20,55,-3.60
2021,12,29,20,56,-3.50
2021,12,29,20,57,-3.50
2021,12,29,20,58,-3.50
2021,12,29,20,59,-3.40
2021,12,29,21,00,-3.40
2021,12,29,21,01,-3.40
2021,12,29,21,02,-3.50
2021,12,29,21,03,-3.50
2021,12,29,21,04,-3.50
2021,12,29,21,05,-3.50
2021,12,29,21,06,-3.50
2021,12,29,21,07,-3.50
2021,12,29,21,08,-3.50
2021,12,29,21,09,-3.40
2021,12,29,21,10,-3.40
2021,12,29,21,11,-3.40
2021,12,29,21,12,-3.30
2021,12,29,21,13,-3.30
2021,12,29,21,14,-3.30
2021,12,29,21,15,-3.30